This is the latest recevied weather packets stored in our database for station/object XE2KK-10. If no packets are shown the sender has not sent any weather packets the latest 10 day(s).
| Time | Temp. | Humidity | Pressure | Rain* | Wind** | Luminosity | Snow |
|---|---|---|---|---|---|---|---|
| 1777989552 | 23.33° C | 67% | 1009.2 hPa | 0 mm | - | 197 W/m² | - |
| 1777989253 | 23.33° C | 68% | 1009.2 hPa | 0 mm | - | 171 W/m² | - |
| 1777988953 | 22.78° C | 69% | 1009.3 hPa | 0 mm | - | 163 W/m² | - |
| 1777988653 | 22.78° C | 69% | 1009.3 hPa | 0 mm | - | 178 W/m² | - |
| 1777988353 | 22.78° C | 69% | 1009.2 hPa | 0 mm | - | 184 W/m² | - |
| 1777988052 | 22.78° C | 70% | 1009.3 hPa | 0 mm | - | 166 W/m² | - |
| 1777987752 | 22.78° C | 69% | 1009.2 hPa | 0 mm | - | 160 W/m² | - |
| 1777987453 | 22.78° C | 69% | 1009.2 hPa | 0 mm | - | 123 W/m² | - |
| 1777987153 | 22.78° C | 69% | 1009.1 hPa | 0 mm | - | 108 W/m² | - |
| 1777986853 | 22.78° C | 69% | 1009.2 hPa | 0 mm | - | 98 W/m² | - |
| 1777986553 | 22.78° C | 69% | 1008.9 hPa | 0 mm | - | 86 W/m² | - |
| 1777986252 | 22.22° C | 69% | 1009.2 hPa | 0 mm | - | 76 W/m² | - |
| 1777985952 | 22.22° C | 70% | 1009.2 hPa | 0 mm | - | 62 W/m² | - |
| 1777985653 | 22.22° C | 70% | 1009.1 hPa | 0 mm | - | 56 W/m² | - |
| 1777985353 | 21.67° C | 71% | 1008.9 hPa | 0 mm | - | 48 W/m² | - |
| 1777985053 | 21.67° C | 70% | 1008.9 hPa | 0 mm | - | 35 W/m² | - |
| 1777984753 | 22.22° C | 69% | 1008.9 hPa | 0 mm | - | 28 W/m² | - |
| 1777984452 | 21.67° C | 70% | 1008.8 hPa | 0 mm | - | 21 W/m² | - |
| 1777984152 | 21.11° C | 71% | 1008.7 hPa | 0 mm | - | 15 W/m² | - |
| 1777983853 | 21.11° C | 72% | 1008.5 hPa | 0 mm | - | 11 W/m² | - |
| 1777983553 | 21.11° C | 72% | 1008.4 hPa | 0 mm | - | 7 W/m² | - |
| 1777983253 | 21.11° C | 72% | 1008.5 hPa | 0 mm | - | 4 W/m² | - |
| 1777982953 | 21.11° C | 71% | 1008.5 hPa | 0 mm | - | 2 W/m² | - |
| 1777982652 | 21.11° C | 71% | 1008.7 hPa | 0 mm | - | 0 W/m² | - |
| 1777982352 | 21.67° C | 71% | 1008.7 hPa | 0 mm | - | 0 W/m² | - |
* Rain latest hour (hover to see other rain measurements)
** Current wind speed in m/s (hover to see current wind gust speed)